FW7504 Weather Reports


time (UTC)temp
C
wind
direction
speed
KPH
gust
KPH
rain 1hr
cm
rain 24hr
cm
rain mn
cm
humidity
%
barometer
mb
20260506051052 20 0 0.0 1.6 0.00 0.00 0.00 64 1012.8
20260506050552 20 0 0.0 3.2 0.00 0.00 0.00 64 1012.7
20260506045051 20 0 0.0 3.2 0.00 0.00 0.00 64 1013.0
20260506044556 20 360 0.0 3.2 0.00 0.00 0.00 63 1012.9
20260506044051 20 360 0.0 3.2 0.00 0.00 0.00 63 1012.8
20260506043551 20 0 0.0 3.2 0.00 0.00 0.00 63 1012.7
20260506043052 20 0 0.0 3.2 0.00 0.00 0.00 63 1012.8
20260506042551 20 360 0.0 3.2 0.00 0.00 0.00 63 1012.9
20260506042054 20 0 0.0 3.2 0.00 0.00 0.00 63 1012.8
20260506041602 20 0 0.0 3.2 0.00 0.00 0.00 63 1012.9
20260506041052 20 360 0.0 3.2 0.00 0.00 0.00 62 1012.9
20260506040551 20 0 0.0 3.2 0.00 0.00 0.00 62 1012.8
20260506040108 20 360 0.0 3.2 0.00 0.00 0.00 62 1012.8
20260506035551 21 360 0.0 3.2 0.00 0.00 0.00 61 1012.8
20260506035052 21 0 0.0 1.6 0.00 0.00 0.00 61 1013.0
20260506034553 21 0 0.0 1.6 0.00 0.00 0.00 61 1013.1
20260506034052 21 0 0.0 0.0 0.00 0.00 0.00 61 1013.0
20260506033551 21 0 0.0 0.0 0.00 0.00 0.00 61 1013.2
20260506033055 21 0 0.0 3.2 0.00 0.00 0.00 61 1013.3
20260506032551 21 0 0.0 3.2 0.00 0.00 0.00 61 1013.2
20260506032051 21 0 0.0 3.2 0.00 0.00 0.00 60 1013.2
20260506031553 21 0 0.0 3.2 0.00 0.00 0.00 60 1013.1
20260506031051 21 0 0.0 3.2 0.00 0.00 0.00 60 1012.9
20260506030551 21 360 0.0 1.6 0.00 0.00 0.00 60 1012.9
20260506030116 21 0 0.0 1.6 0.00 0.00 0.00 60 1012.9
20260506025551 21 0 0.0 3.2 0.00 0.00 0.00 59 1013.1
20260506025051 21 0 0.0 3.2 0.00 0.00 0.00 59 1013.3
20260506024558 21 0 0.0 4.8 0.00 0.00 0.00 59 1013.4
20260506024051 21 0 0.0 4.8 0.00 0.00 0.00 59 1013.4
20260506023550 21 360 1.6 4.8 0.00 0.00 0.00 59 1013.3
20260506023057 21 360 1.6 6.4 0.00 0.00 0.00 59 1013.2
20260506022551 21 360 1.6 6.4 0.00 0.00 0.00 59 1013.1
20260506022048 21 360 0.0 4.8 0.00 0.00 0.00 59 1012.8
20260506021609 21 360 1.6 8.0 0.00 0.00 0.00 58 1012.8
20260506021052 21 360 1.6 8.0 0.00 0.00 0.00 58 1013.0
20260506020551 21 0 1.6 8.0 0.00 0.00 0.00 58 1012.9
20260506020055 21 360 3.2 8.0 0.00 0.00 0.00 58 1012.6
20260506015549 21 360 3.2 8.0 0.00 0.00 0.00 58 1012.7
20260506015054 21 360 3.2 8.0 0.00 0.00 0.00 58 1012.7
20260506014612 21 360 1.6 8.0 0.00 0.00 0.00 57 1012.7
20260506014053 21 360 1.6 8.0 0.00 0.00 0.00 57 1012.5
20260506013553 21 360 3.2 8.0 0.00 0.00 0.00 57 1012.4
20260506013100 21 360 1.6 8.0 0.00 0.00 0.00 57 1012.5
20260506012553 21 360 1.6 4.8 0.00 0.00 0.00 57 1012.4
20260506012056 21 360 1.6 4.8 0.00 0.00 0.00 56 1012.3
20260506011600 21 360 0.0 3.2 0.00 0.00 0.00 56 1012.3
20260506011053 21 0 0.0 3.2 0.00 0.00 0.00 56 1012.4
20260506010553 21 0 0.0 3.2 0.00 0.00 0.00 56 1012.3
20260506010103 21 360 0.0 4.8 0.00 0.00 0.00 56 1012.3
20260506005553 21 0 0.0 4.8 0.00 0.00 0.00 56 1012.3
20260506005052 21 360 0.0 4.8 0.00 0.00 0.00 55 1012.4
20260506004555 21 360 0.0 3.2 0.00 0.00 0.00 55 1012.3
20260506004054 21 360 0.0 3.2 0.00 0.00 0.00 55 1012.6
20260506003553 21 0 0.0 3.2 0.00 0.00 0.00 54 1012.5
20260506003052 21 0 0.0 3.2 0.00 0.00 0.00 54 1012.5
20260506002555 21 0 0.0 3.2 0.00 0.00 0.00 54 1012.6
20260506002053 21 360 0.0 4.8 0.00 0.00 0.00 54 1012.7
20260506001559 21 360 1.6 4.8 0.00 0.00 0.00 54 1012.7
20260506001053 21 360 0.0 4.8 0.00 0.00 0.00 54 1012.7
20260506000552 21 0 0.0 3.2 0.00 0.00 0.00 53 1012.7
20260506000059 21 360 0.0 3.2 0.00 0.00 0.00 54 1012.6
20260505235556 21 0 0.0 3.2 0.00 0.00 0.00 53 1012.6
20260505235053 21 360 0.0 3.2 0.00 0.00 0.00 53 1012.5
20260505234554 22 360 0.0 4.8 0.00 0.00 0.00 53 1012.6
20260505234054 22 0 1.6 4.8 0.00 0.00 0.00 52 1012.8
20260505233554 22 360 1.6 4.8 0.00 0.00 0.00 52 1012.7
20260505233104 22 360 1.6 4.8 0.00 0.00 0.00 52 1012.7
20260505232553 21 360 0.0 4.8 0.00 0.00 0.00 52 1012.7
20260505232053 21 360 1.6 4.8 0.00 0.00 0.00 52 1012.7
20260505231552 21 360 1.6 4.8 0.00 0.00 0.00 52 1012.8
20260505231055 21 360 1.6 4.8 0.00 0.00 0.00 52 1012.5
20260505230553 21 360 1.6 6.4 0.00 0.00 0.00 52 1012.6
20260505230056 21 360 1.6 6.4 0.00 0.00 0.00 54 1012.6
20260505225553 21 360 0.0 4.8 0.00 0.00 0.00 54 1012.5
20260505225054 21 360 1.6 4.8 0.00 0.00 0.00 54 1012.6
20260505224552 21 0 0.0 4.8 0.00 0.00 0.00 55 1012.7
20260505224056 21 360 0.0 4.8 0.00 0.00 0.00 55 1012.9
20260505223552 21 360 0.0 4.8 0.00 0.00 0.00 56 1012.8
20260505223054 20 360 0.0 3.2 0.00 0.00 0.00 57 1012.5
20260505222553 20 0 0.0 3.2 0.00 0.00 0.00 59 1012.5
20260505222053 20 0 0.0 3.2 0.00 0.00 0.00 59 1012.6
20260505221601 20 360 0.0 3.2 0.00 0.00 0.00 61 1012.7
20260505221056 20 0 0.0 3.2 0.00 0.00 0.00 60 1012.9
20260505220553 20 0 0.0 3.2 0.00 0.00 0.00 60 1012.8
20260505220057 21 360 0.0 3.2 0.00 0.00 0.00 59 1012.7
20260505215553 21 0 0.0 6.4 0.00 0.00 0.00 60 1012.5
20260505215053 21 0 0.0 6.4 0.00 0.00 0.00 61 1012.5
20260505214553 22 0 0.0 4.8 0.00 0.00 0.00 57 1012.4
20260505214053 22 0 0.0 6.4 0.00 0.00 0.00 56 1012.5
20260505213553 22 360 1.6 6.4 0.00 0.00 0.00 50 1013.1
20260505213102 22 360 1.6 4.8 0.00 0.00 0.00 49 1013.2
20260505212553 22 360 1.6 6.4 0.00 0.00 0.00 48 1013.1
20260505212053 23 360 1.6 9.7 0.00 0.00 0.00 47 1013.4
20260505211556 23 360 3.2 9.7 0.00 0.00 0.00 45 1013.5
20260505211053 23 360 1.6 9.7 0.00 0.00 0.00 48 1013.5
20260505210555 23 360 0.0 8.0 0.00 0.00 0.00 48 1013.5
20260505210106 23 0 1.6 8.0 0.00 0.00 0.00 48 1013.3
20260505205554 23 360 1.6 8.0 0.00 0.00 0.00 47 1013.2
20260505205057 23 360 3.2 8.0 0.00 0.00 0.00 46 1013.2
20260505204555 23 360 4.8 8.0 0.00 0.00 0.00 45 1013.3
20260505204053 24 360 3.2 8.0 0.00 0.00 0.00 45 1013.2
20260505203556 24 360 4.8 8.0 0.00 0.00 0.00 43 1013.2
20260505203056 24 360 3.2 8.0 0.00 0.00 0.00 44 1013.3
20260505202553 24 360 3.2 12.9 0.00 0.00 0.00 45 1013.2
20260505202053 25 360 4.8 12.9 0.00 0.00 0.00 47 1013.4
20260505201555 25 360 4.8 12.9 0.00 0.00 0.00 47 1013.5
20260505201053 25 360 4.8 12.9 0.00 0.00 0.00 47 1013.6
20260505200554 25 360 6.4 12.9 0.00 0.00 0.00 46 1013.7
20260505200055 26 360 6.4 12.9 0.00 0.00 0.00 48 1013.7
20260505195552 25 360 1.6 12.9 0.00 0.00 0.00 49 1013.6
20260505195052 25 360 3.2 14.5 0.00 0.00 0.00 48 1013.6
20260505194558 25 360 6.4 16.1 0.00 0.00 0.00 45 1013.6
20260505194054 25 360 8.0 16.1 0.00 0.00 0.00 46 1013.7
20260505193553 25 360 6.4 14.5 0.00 0.00 0.00 45 1013.8
20260505193110 25 360 1.6 12.9 0.00 0.00 0.00 46 1013.9
20260505192555 25 360 3.2 12.9 0.00 0.00 0.00 47 1013.9
20260505192053 25 360 6.4 12.9 0.00 0.00 0.00 45 1014.0
20260505191559 25 360 3.2 9.7 0.00 0.00 0.00 45 1014.2
20260505191053 25 0 1.6 8.0 0.00 0.00 0.00 46 1014.1
20260505190553 25 360 1.6 8.0 0.00 0.00 0.00 47 1013.9
20260505190056 25 360 3.2 14.5 0.00 0.00 0.00 45 1013.9
20260505185553 25 360 3.2 14.5 0.00 0.00 0.00 46 1014.2
20260505185053 25 360 6.4 14.5 0.00 0.00 0.00 45 1014.3
20260505184556 25 360 6.4 14.5 0.00 0.00 0.00 43 1014.2
20260505184053 24 360 4.8 17.7 0.00 0.00 0.00 43 1014.5
20260505183552 24 360 6.4 17.7 0.00 0.00 0.00 45 1014.5
20260505183057 24 360 6.4 16.1 0.00 0.00 0.00 46 1014.6
20260505182552 25 360 4.8 17.7 0.00 0.00 0.00 45 1014.8
20260505182052 24 360 6.4 17.7 0.00 0.00 0.00 44 1014.9
20260505181552 24 360 8.0 17.7 0.00 0.00 0.00 44 1015.1
20260505181054 24 360 4.8 12.9 0.00 0.00 0.00 43 1015.1
20260505180553 24 360 4.8 20.9 0.00 0.00 0.00 45 1015.2
20260505180056 24 360 3.2 20.9 0.00 0.00 0.00 44 1014.9
20260505175553 25 360 4.8 20.9 0.00 0.00 0.00 43 1014.8
20260505175053 24 360 4.8 16.1 0.00 0.00 0.00 46 1015.0
20260505174557 24 360 6.4 14.5 0.00 0.00 0.00 45 1015.0
20260505174056 24 360 3.2 14.5 0.00 0.00 0.00 46 1015.2
20260505173553 24 360 4.8 16.1 0.00 0.00 0.00 45 1015.2
20260505173051 24 360 6.4 16.1 0.00 0.00 0.00 45 1015.2
20260505172552 24 360 1.6 8.0 0.00 0.00 0.00 49 1015.2
20260505172052 24 360 3.2 12.9 0.00 0.00 0.00 49 1015.3
20260505171552 23 360 3.2 12.9 0.00 0.00 0.00 47 1015.5
20260505171053 23 360 4.8 12.9 0.00 0.00 0.00 47 1015.6
20260505170552 23 360 3.2 12.9 0.00 0.00 0.00 47 1015.9
20260505170054 23 360 3.2 12.9 0.00 0.00 0.00 46 1016.0
20260505165552 23 360 4.8 16.1 0.00 0.00 0.00 47 1016.1
20260505165053 23 360 3.2 16.1 0.00 0.00 0.00 47 1016.0
20260505164552 23 360 4.8 9.7 0.00 0.00 0.00 51 1015.8
20260505164053 23 360 3.2 8.0 0.00 0.00 0.00 51 1016.1
20260505163553 22 360 3.2 12.9 0.00 0.00 0.00 54 1016.1
20260505163054 22 360 4.8 12.9 0.00 0.00 0.00 53 1016.2
20260505162555 22 360 4.8 12.9 0.00 0.00 0.00 54 1016.2
20260505162054 22 360 4.8 9.7 0.00 0.00 0.00 55 1016.0
20260505161554 22 360 3.2 8.0 0.00 0.00 0.00 54 1015.9
20260505161053 22 360 1.6 8.0 0.00 0.00 0.00 59 1016.0
20260505160553 22 0 1.6 6.4 0.00 0.00 0.00 58 1015.9
20260505153107 21 360 0.0 6.4 0.00 0.00 0.00 62 1016.4
20260505152554 21 360 3.2 8.0 0.00 0.00 0.00 60 1016.4
20260505152053 21 360 1.6 8.0 0.00 0.00 0.00 60 1016.3
20260505151554 21 360 3.2 9.7 0.00 0.00 0.00 61 1016.4
20260505151057 21 360 3.2 9.7 0.00 0.00 0.00 61 1016.6
20260505150553 21 0 1.6 6.4 0.00 0.00 0.00 64 1016.4
20260505140553 18 0 0.0 1.6 0.00 0.00 0.00 70 1016.5
20260505124603 13 0 0.0 0.0 0.00 0.00 0.00 79 1016.3
20260505124052 13 0 0.0 0.0 0.00 0.00 0.00 79 1016.3
20260505123557 13 0 0.0 0.0 0.00 0.00 0.00 78 1016.1
20260505123114 13 0 0.0 0.0 0.00 0.00 0.00 78 1016.1
20260505122553 13 0 0.0 0.0 0.00 0.00 0.00 78 1016.0
20260505122053 13 0 0.0 3.2 0.00 0.00 0.00 81 1015.8
20260505121557 12 0 0.0 3.2 0.00 0.00 0.00 80 1015.8
20260505121057 12 360 0.0 3.2 0.00 0.00 0.00 80 1015.8
20260505120554 12 0 0.0 0.0 0.00 0.00 0.00 82 1015.8
20260505120108 12 0 0.0 0.0 0.00 0.00 0.00 82 1015.6
20260505115552 12 0 0.0 0.0 0.00 0.00 0.00 82 1015.5
20260505115052 11 0 0.0 0.0 0.00 0.00 0.00 82 1015.6
20260505114600 11 0 0.0 0.0 0.00 0.00 0.00 82 1015.5
20260505114052 11 0 0.0 0.0 0.00 0.00 0.00 82 1015.4
20260505113557 11 0 0.0 0.0 0.00 0.00 0.00 82 1015.3
20260505113102 11 0 0.0 0.0 0.00 0.00 0.00 82 1015.3
20260505112553 11 0 0.0 0.0 0.00 0.00 0.00 82 1015.2
20260505112053 11 0 0.0 0.0 0.00 0.00 0.00 81 1015.1
20260505111606 11 0 0.0 0.0 0.00 0.00 0.00 81 1015.0
20260505111053 11 0 0.0 0.0 0.00 0.00 0.00 81 1015.0
20260505110553 11 0 0.0 0.0 0.00 0.00 0.00 81 1014.9
20260505110119 11 0 0.0 0.0 0.00 0.00 0.00 80 1014.9
20260505102052 12 0 0.0 0.0 0.00 0.00 0.00 77 1014.4
20260505101601 12 0 0.0 0.0 0.00 0.00 0.00 76 1014.4
20260505101052 12 0 0.0 0.0 0.00 0.00 0.00 76 1014.2
20260505100553 12 0 0.0 0.0 0.00 0.00 0.00 76 1014.2
20260505100104 13 0 0.0 0.0 0.00 0.00 0.00 75 1014.2
20260505095554 13 0 0.0 0.0 0.00 0.00 0.00 74 1014.1
20260505095053 13 0 0.0 0.0 0.00 0.00 0.00 74 1014.1
20260505094555 13 0 0.0 0.0 0.00 0.00 0.00 74 1014.1
20260505094052 13 0 0.0 0.0 0.00 0.00 0.00 73 1014.2
20260505093552 13 0 0.0 0.0 0.00 0.00 0.00 72 1014.3
20260505093052 13 0 0.0 0.0 0.00 0.00 0.00 71 1014.4
20260505092553 14 0 0.0 1.6 0.00 0.00 0.00 70 1014.4
20260505092053 14 0 0.0 1.6 0.00 0.00 0.00 70 1014.2
20260505091617 13 0 0.0 0.0 0.00 0.00 0.00 70 1014.3
20260505091052 13 0 0.0 0.0 0.00 0.00 0.00 69 1014.3
20260505090553 13 0 0.0 0.0 0.00 0.00 0.00 70 1014.1
20260505090119 13 0 0.0 0.0 0.00 0.00 0.00 70 1014.2
20260505085552 13 0 0.0 0.0 0.00 0.00 0.00 71 1014.2
20260505085052 13 0 0.0 0.0 0.00 0.00 0.00 71 1014.1
20260505084611 13 0 0.0 0.0 0.00 0.00 0.00 72 1014.1
20260505084051 13 0 0.0 0.0 0.00 0.00 0.00 71 1014.2
20260505083555 13 0 0.0 0.0 0.00 0.00 0.00 72 1014.4
20260505083111 13 0 0.0 0.0 0.00 0.00 0.00 72 1014.4
20260505082552 13 0 0.0 0.0 0.00 0.00 0.00 72 1014.5
20260505082053 13 0 0.0 0.0 0.00 0.00 0.00 73 1014.6
20260505081603 13 0 0.0 0.0 0.00 0.00 0.00 73 1014.5
20260505081053 13 0 0.0 0.0 0.00 0.00 0.00 74 1014.5
20260505080552 13 0 0.0 0.0 0.00 0.00 0.00 74 1014.5
20260505075552 13 0 0.0 0.0 0.00 0.00 0.00 73 1014.6
20260505075053 13 0 0.0 0.0 0.00 0.00 0.00 74 1014.5
20260505074556 13 0 0.0 0.0 0.00 0.00 0.00 73 1014.5
20260505074053 13 0 0.0 0.0 0.00 0.00 0.00 72 1014.5
20260505073553 13 0 0.0 0.0 0.00 0.00 0.00 72 1014.4
20260505073056 13 0 0.0 0.0 0.00 0.00 0.00 72 1014.5
20260505072556 13 0 0.0 0.0 0.00 0.00 0.00 72 1014.6
20260505072053 13 0 0.0 0.0 0.00 0.00 0.00 72 1014.6
20260505071613 13 0 0.0 0.0 0.00 0.00 0.00 72 1014.6
20260505071056 13 0 0.0 0.0 0.00 0.00 0.00 72 1014.5
20260505070553 13 0 0.0 0.0 0.00 0.00 0.00 72 1014.5
20260505070054 13 0 0.0 0.0 0.00 0.00 0.00 72 1014.5
20260505065553 14 0 0.0 0.0 0.00 0.00 0.00 72 1014.5
20260505065052 14 0 0.0 0.0 0.00 0.00 0.00 72 1014.6
20260505064555 14 0 0.0 0.0 0.00 0.00 0.00 72 1014.7
20260505064055 14 0 0.0 0.0 0.00 0.00 0.00 72 1014.8
20260505063555 14 0 0.0 0.0 0.00 0.00 0.00 72 1014.7
20260505063054 14 0 0.0 0.0 0.00 0.00 0.00 72 1014.7
20260505062552 14 0 0.0 0.0 0.00 0.00 0.00 72 1014.8
20260505062051 15 0 0.0 0.0 0.00 0.00 0.00 72 1014.9
20260505061556 15 0 0.0 0.0 0.00 0.00 0.00 72 1014.8
20260505061052 15 0 0.0 0.0 0.00 0.00 0.00 72 1014.8
20260505060552 15 0 0.0 0.0 0.00 0.00 0.00 72 1014.8